Regional Weather Roundup
Issued by NWS Grand Forks, ND

Home | Current Version | Previous Version | Text Only | Print | Product List | Glossary Off
Versions: 1 2 3 4 5 6 7 8 9 10 11 12 13 14 15 16 17 18 19 20 21 22 23 24 25 26 27 28 29 30 31 32 33 34 35 36 37 38 39 40 41 42 43 44 45 46 47 48 49 50

000
ASUS43 KFGF 231510
RWRFGF
PRAIRIE TO PINES  WEATHER ROUNDUP
NATIONAL WEATHER SERVICE EASTERN NORTH DAKOTA/GRAND FORKS ND
1000 AM CDT TUE MAY 23 2017

 **SATELLITE DATA USED TO AUGMENT SKY COVER AT AUTOMATED STATIONS**
 *****  WEATHER ACROSS EASTERN NORTH DAKOTA  *****

CITY           SKY/WX    TMP DP  RH WIND       PRES   REMARKS
GRAND FORKS    CLOUDY    53  45  74 N17       30.00S
GRAND FRKS AFB CLOUDY    51  44  77 NE17G28   30.01S
DEVILS LAKE    FAIR      54  41  61 N21G28    30.08R
FARGO          CLOUDY    49  47  93 N15       29.95R
WAHPETON ARPT  CLOUDY    48  45  87 N14       29.93S
$$

 ***** WEATHER ACROSS CENTRAL AND WESTERN NORTH DAKOTA  *****

CITY           SKY/WX    TMP DP  RH WIND       PRES   REMARKS
BISMARCK       FAIR      58  37  45 N20G33    30.08S
MINOT          FAIR      59  37  44 N12       30.14F
JAMESTOWN      CLOUDY    47  44  90 N21G29    30.01S
MINOT AFB      FAIR      57  38  48 NE9       30.14F
GARRISON         N/A     55  35  47 NE12G21   30.13F
WILLISTON      FAIR      59  38  45 VRB3      30.17F
DICKINSON      FAIR      56  33  42 N14G23    30.14S
HETTINGER      FAIR      56  34  43 N18G24    30.15S
$$

 *****  OTHER AIRPORT OBSERVATIONS IN OUR AREA  *****

CITY           SKY/WX    TMP DP  RH WIND       PRES   REMARKS
WALHALLA       NOT AVBL
GRAFTON AIRPOR FAIR      52  46  82 N17G23    30.05S
VALLEY CITY AR NOT AVBL
CANDO          NOT AVBL
CAVALIER APRT  FAIR      54  46  76 N16G23    30.06S
GWINNER        CLOUDY    46  46 100 MISG      29.97R FOG
SHEYENNE NWR     N/A     48  46  91 N9        29.95S
ROLLA          FAIR      55  37  50 N18       30.13S
 ***** THE ABOVE OBSERVATIONS ARE NON NWS ARE NOT QUALITY
       CONTROLLED AND MAY MIS-REPORT RAIN FOR SNOW...
$$

  *****  WEATHER ACROSS NORTHERN MINNESOTA  *****

CITY           SKY/WX    TMP DP  RH WIND       PRES   REMARKS
FLAG ISLAND    PTSUNNY   52  39  62 NE16G29   30.01R
WARROAD        FAIR      54  45  71 NE16G25   30.01S
ROSEAU         FAIR      54  45  71 NE21      30.00S
HALLOCK        FAIR      57  45  62 N18       30.03S
THF RVR FALLS  CLOUDY    48  41  76 NE20G26   29.99R
BAUDETTE       CLOUDY    48  42  80 NE13      29.98R
WASKISH        CLOUDY    46  45  93 NE12G17   29.95S
CROOKSTON      CLOUDY    52  45  76 NE15G22   29.99S
STEPHEN NDAWN    N/A     54  43  66 NE15        N/A
GREENBUSH NDAW   N/A     52  45  76 N14         N/A
$$
  *****  WEATHER ACROSS CENTRAL AND WEST MINNESOTA  *****

CITY           SKY/WX    TMP DP  RH WIND       PRES   REMARKS
FOSSTON        DRIZZLE   45  45 100 N14G20    29.96R
BEMIDJI        CLOUDY    46  45  96 NE12G17   29.92R
PARK RAPIDS    CLOUDY    52  42  69 NE10      29.89R
ELBOW LAKE     CLOUDY    48  47  96 N13       29.89S
WADENA         CLOUDY    48  46  93 NE7       29.89R
DETROIT LAKES  LGT RAIN  50  46  87 N7        29.92R
MOORHEAD       CLOUDY    48  46  93 N20       29.95R
FERGUS FALLS   CLOUDY    50  48  93 N10       29.89S
MORRIS MN      PTSUNNY   50  46  87 N15       29.88S
STAPLES        CLOUDY    48  45  87 N8        29.89R
$$
  *****  WEATHER ELSEWHERE ACROSS MINNESOTA  *****

CITY           SKY/WX    TMP DP  RH WIND       PRES   REMARKS
DULUTH         CLOUDY    50  43  77 E10       29.87R
INTRNTL FALLS  CLOUDY    48  44  86 NE6       29.95S
ELY            CLOUDY    46  46 100 NE5       29.90R
CLOQUET        CLOUDY    50  43  76 NE3       29.87S
WHEATON        LGT RAIN  48  45  87 NW15      29.93S
BRAINERD       CLOUDY    49  44  83 NE8       29.89R
HIBBING        CLOUDY    50  45  83 NE7       29.89R
ALEXANDRIA     CLOUDY    49  46  90 NE9       29.88S
SAINT CLOUD    CLOUDY    50  47  89 N7        29.86R
MINNEAPOLIS    CLOUDY    55  45  68 E5        29.83R
$$

  *****  WEATHER ACROSS SOUTH DAKOTA  *****

CITY           SKY/WX    TMP DP  RH WIND       PRES   REMARKS
SIOUX FALLS    LGT RAIN  50  47  89 NW15      29.90S
BROOKINGS      LGT RAIN  46  45  93 N14G22    29.90S
WATERTOWN      CLOUDY    47  44  90 N15       29.91S
HURON          CLOUDY    50  45  83 N20G25    29.95S
SISSETON         N/A     49  47  93 N18       29.92S
ABERDEEN       CLOUDY    49  42  77 N21G26    29.99R
MITCHELL       CLOUDY    50  45  83 N20       29.96R
PIERRE         LGT RAIN  53  39  59 N24G36    30.03R
MOBRIDGE       CLOUDY    53  37  54 N18G29    30.02S
RAPID CITY     FAIR      53  36  52 N16       30.15S
$$

  *****  SOME WEATHER IN NEARBY STATES *****

CITY           SKY/WX    TMP DP  RH WIND       PRES   REMARKS
GLASGOW MT     FAIR      58  37  45 CALM      30.16F
GREAT FALLS MT FAIR      61  41  47 S12       30.09F
CHEYENNE WY    CLOUDY    42  34  73 NW17G25   30.22F
SCOTTSBLUFF NE CLOUDY    52  41  66 W12       30.17S
OMAHA NE       CLOUDY    56  44  64 N16G22    29.90F
DES MOINES IA  PTSUNNY   59  49  69 NW13      29.84S
DAVENPORT IA   CLOUDY    57  53  86 SW8       29.79S
CHICAGO IL     LGT RAIN  59  55  87 SW10      29.81S
EAU CLAIRE WI  LGT RAIN  50  48  93 NE9       29.81S
LA CROSSE WI   CLOUDY    56  53  90 N6        29.76F
$$

  *****  SOME NATIONAL WEATHER *****

CITY           SKY/WX    TMP DP  RH WIND       PRES   REMARKS
LA GUARDIA NY  CLOUDY    63  48  58 NE5       29.96R
RALEIGH NC     LGT RAIN  69  67  93 E6        29.85F FOG
ATLANTA GA     LGT RAIN  67  66  97 W6        29.84S
NEW ORLEANS LA PTSUNNY   78  71  79 W8        29.78R
OKLAHOMA CITY  CLOUDY    58  53  84 N22       29.96R
ALBUQUERQUE NM FAIR      58  42  55 E9        30.16S
SALT LAKE CITY FAIR      66  42  41 S8        30.18S
LOS ANGELES CA PTSUNNY   62  58  86 CALM      29.95S FOG
BOISE ID       FAIR      66  41  40 SE10      30.13R
SEATTLE WA     FAIR      64  53  67 N3        30.04S
$$

*** WEATHER ACROSS MANITOBA...SASKATCHEWAN AND ONTARIO ***
                ***ONTARIO***

CITY           SKY/WX    TMP DP  RH WIND       PRES   REMARKS
GERALDTON      CLOUDY    45  41  87 N6        29.92R
THUNDER BAY    DRIZZLE   50  45  81 NE7       29.91R
SIOUX LOOKOUT  PTSUNNY   54  43  66 VRB2      30.00R
TORONTO        CLOUDY    66  52  59 SW10      29.87S
BIG TROUT LK   SUNNY     46  19  34 NE6       30.12S
PICKLE LAKE    MOSUNNY   50  36  57 NE5       30.02F
DRYDEN         PTSUNNY   52  43  71 NE13G22   30.00R
KENORA         PTSUNNY   54  41  62 NE10G22   30.02S
$$
                *** MANITOBA***

CITY           SKY/WX    TMP DP  RH WIND       PRES   REMARKS
BRANDON        MOSUNNY   59  36  41 N5        30.15F
DAUPHIN        SUNNY     61  34  36 CALM      30.13F
ISLAND LAKE    MOSUNNY   54  36  50 W5        30.14S
PILOT MOUND    NOT AVBL
THE PAS        MOSUNNY   66  36  32 SW10      30.06F
THOMPSON       MOSUNNY   61  37  41 S9        30.06F
WINNIPEG       NOT AVBL
LYNN LAKE      PTSUNNY   64  36  34 S13G21    29.91F
CHURCHILL      PTSUNNY   39  34  81 S15       30.06F
GILLAM         PTSUNNY   52  39  62 VRB2      30.10F
$$
                ***SASKATCHEWAN***

CITY           SKY/WX    TMP DP  RH WIND       PRES   REMARKS
ESTEVAN        MOSUNNY   57  36  44 VRB3      30.16F
KINDERSLEY     PTSUNNY   63  34  34 S22       30.00F
LLOYDMINSTER   PTSUNNY   63  39  42 S14G22    29.90F
PRINCE ALBERT  PTSUNNY   64  41  42 S7        30.02F
REGINA         MOSUNNY   63  34  34 SE9       30.13F
YORKTON        SUNNY     61  32  33 S8        30.13F
N. BATTLEFORD  MOSUNNY   63  36  36 S15G21    29.99F
LA RONGE       CLOUDY    61  37  41 S10       29.92F
SASKATOON      PTSUNNY   66  37  34 S14       30.06F
SWIFT CURRENT  NOT AVBL
$$
NOTE: THESE ARE AUTOMATED STATIONS WITH LIMITED QUALITY CONTROL
      "FAIR" INDICATES FEW OR NO CLOUDS BELOW 12,000 FEET WITH NO
      SIGNIFICANT WEATHER AND/OR OBSTRUCTIONS TO VISIBILITY.
      SKY/WX - SKY CONDITION AND SIGNIFICANT WEATHER.
      TMP - AIR TEMPERATURE.    DP   - DEWPOINT TEMPERATURE.
      RH  - RELATIVE HUMIDITY.  PRES - PRESSURE.
      HX  - HEAT INDEX.         WCI  - WIND CHILL INDEX.
$




USA.gov is the U.S. government's official web portal to all federal, state and local government web resources and services.